UAL1888 KDEN-KEGE

Flight info

Callsign UAL1888
Flight time 0h 25m
Altitude 22000
Route ZIMMR4 ZIMMR CULCH VAAIL1
Aircraft B738/M-SDE2E3FGHIRWXY/LB1

Departure

Time 2026-05-07 20:20
Airport Denver International Airport (KDEN)

Arrival

Time 2026-05-07 20:46
Airport Eagle County Regional Airport (KEGE)
Time Latitude Longitude Altitude Speed Heading
2026-05-07 19:53 39.85805 -104.67147 5365 ft 0 kts
2026-05-07 20:08 39.85803 -104.67147 5365 ft 2 kts
2026-05-07 20:09 39.85777 -104.67147 5361 ft 3 kts
2026-05-07 20:09 39.85755 -104.67149 5362 ft 4 kts 17°
2026-05-07 20:09 39.85736 -104.67165 5362 ft 4 kts 71°
2026-05-07 20:10 39.85733 -104.67207 5365 ft 1 kts 91°
2026-05-07 20:11 39.85733 -104.67204 5365 ft 1 kts 91°
2026-05-07 20:12 39.85733 -104.67165 5365 ft 8 kts 90°
2026-05-07 20:12 39.85733 -104.67065 5365 ft 14 kts 90°
2026-05-07 20:12 39.85730 -104.66924 5365 ft 17 kts 90°
2026-05-07 20:12 39.85683 -104.66804 5363 ft 15 kts 141°
2026-05-07 20:13 39.85660 -104.66670 5365 ft 16 kts 88°
2026-05-07 20:13 39.85667 -104.66533 5364 ft 11 kts 108°
2026-05-07 20:13 39.85591 -104.66466 5365 ft 15 kts 114°
2026-05-07 20:13 39.85584 -104.66313 5365 ft 12 kts 90°
2026-05-07 20:14 39.85557 -104.66236 5365 ft 12 kts 155°
2026-05-07 20:14 39.85460 -104.66227 5363 ft 17 kts 171°
2026-05-07 20:14 39.85330 -104.66233 5363 ft 21 kts 180°
2026-05-07 20:14 39.85194 -104.66236 5364 ft 13 kts 179°
2026-05-07 20:15 39.85109 -104.66235 5363 ft 14 kts 180°
2026-05-07 20:15 39.85002 -104.66236 5365 ft 17 kts 179°
2026-05-07 20:15 39.84867 -104.66247 5364 ft 21 kts 180°
2026-05-07 20:15 39.84709 -104.66243 5363 ft 24 kts 180°
2026-05-07 20:16 39.84539 -104.66246 5364 ft 25 kts 180°
2026-05-07 20:16 39.84359 -104.66247 5364 ft 26 kts 180°
2026-05-07 20:16 39.84189 -104.66250 5364 ft 24 kts 180°
2026-05-07 20:16 39.84026 -104.66248 5364 ft 23 kts 183°
2026-05-07 20:17 39.83854 -104.66252 5364 ft 27 kts 180°
2026-05-07 20:17 39.83676 -104.66253 5365 ft 25 kts 181°
2026-05-07 20:17 39.83517 -104.66250 5363 ft 24 kts 178°
2026-05-07 20:17 39.83355 -104.66255 5363 ft 24 kts 181°
2026-05-07 20:18 39.83179 -104.66260 5365 ft 24 kts 180°
2026-05-07 20:18 39.83007 -104.66263 5364 ft 24 kts 181°
2026-05-07 20:18 39.82866 -104.66255 5363 ft 16 kts 150°
2026-05-07 20:18 39.82837 -104.66197 5362 ft 0 kts 94°
2026-05-07 20:19 39.82837 -104.66185 5363 ft 4 kts 92°
2026-05-07 20:19 39.82838 -104.66106 5366 ft 13 kts 82°
2026-05-07 20:19 39.82972 -104.66046 5366 ft 48 kts 358°
2026-05-07 20:19 39.83541 -104.66049 5362 ft 114 kts
2026-05-07 20:20 39.84522 -104.66053 5365 ft 167 kts
2026-05-07 20:20 39.85806 -104.65951 5607 ft 195 kts 355°
2026-05-07 20:20 39.87204 -104.65911 6259 ft 204 kts 353°
2026-05-07 20:20 39.88587 -104.65897 7113 ft 195 kts 354°
2026-05-07 20:21 39.89995 -104.65943 7478 ft 212 kts 343°
2026-05-07 20:21 39.91344 -104.66832 7673 ft 228 kts 318°
2026-05-07 20:21 39.92459 -104.68424 7850 ft 250 kts 298°
2026-05-07 20:21 39.93028 -104.70596 8345 ft 263 kts 279°
2026-05-07 20:22 39.93226 -104.73015 9225 ft 266 kts 275°
2026-05-07 20:22 39.93332 -104.75394 10104 ft 268 kts 274°
2026-05-07 20:22 39.93429 -104.77902 10526 ft 288 kts 274°
2026-05-07 20:22 39.93535 -104.80613 10898 ft 306 kts 274°
2026-05-07 20:23 39.93649 -104.83411 11622 ft 311 kts 274°
2026-05-07 20:23 39.93769 -104.86238 12460 ft 313 kts 274°
2026-05-07 20:23 39.93895 -104.89082 13321 ft 315 kts 275°
2026-05-07 20:23 39.94024 -104.91943 14105 ft 319 kts 275°
2026-05-07 20:24 39.94158 -104.94857 14682 ft 326 kts 275°
2026-05-07 20:24 39.94295 -104.97819 15432 ft 328 kts 275°
2026-05-07 20:24 39.94432 -105.00790 16207 ft 331 kts 275°
2026-05-07 20:24 39.94572 -105.03809 16878 ft 335 kts 275°
2026-05-07 20:25 39.94712 -105.06856 17641 ft 339 kts 275°
2026-05-07 20:25 39.94854 -105.09940 18347 ft 343 kts 275°
2026-05-07 20:25 39.94996 -105.13062 18969 ft 345 kts 275°
2026-05-07 20:25 39.95138 -105.16193 19644 ft 347 kts 275°
2026-05-07 20:26 39.95279 -105.19302 20284 ft 348 kts 275°
2026-05-07 20:26 39.95421 -105.22467 20880 ft 351 kts 275°
2026-05-07 20:26 39.95563 -105.25658 21490 ft 353 kts 275°
2026-05-07 20:26 39.95706 -105.28869 21970 ft 358 kts 275°
2026-05-07 20:27 39.95849 -105.32131 21995 ft 358 kts 276°
2026-05-07 20:27 39.95989 -105.35343 22025 ft 353 kts 276°
2026-05-07 20:27 39.96128 -105.38535 22027 ft 353 kts 276°
2026-05-07 20:27 39.96267 -105.41744 22034 ft 354 kts 276°
2026-05-07 20:28 39.96406 -105.44956 22028 ft 355 kts 276°
2026-05-07 20:28 39.96544 -105.48175 22035 ft 356 kts 276°
2026-05-07 20:28 39.96681 -105.51399 22038 ft 356 kts 276°
2026-05-07 20:28 39.96817 -105.54618 22050 ft 356 kts 276°
2026-05-07 20:29 39.96954 -105.57840 22045 ft 356 kts 276°
2026-05-07 20:29 39.97089 -105.61057 22050 ft 355 kts 276°
2026-05-07 20:29 39.97221 -105.64272 22073 ft 354 kts 276°
2026-05-07 20:29 39.97355 -105.67459 22076 ft 349 kts 277°
2026-05-07 20:30 39.97519 -105.70558 22100 ft 345 kts 277°
2026-05-07 20:30 39.97701 -105.73700 21810 ft 342 kts 277°
2026-05-07 20:30 39.97878 -105.76723 21560 ft 335 kts 277°
2026-05-07 20:30 39.98051 -105.79720 21327 ft 328 kts 277°
2026-05-07 20:31 39.98221 -105.82661 21069 ft 322 kts 277°
2026-05-07 20:31 39.98386 -105.85557 20819 ft 318 kts 277°
2026-05-07 20:31 39.98549 -105.88422 20567 ft 315 kts 277°
2026-05-07 20:31 39.98708 -105.91264 20321 ft 313 kts 277°
2026-05-07 20:32 39.98866 -105.94087 20095 ft 311 kts 277°
2026-05-07 20:32 39.99021 -105.96887 19870 ft 309 kts 277°
2026-05-07 20:32 39.99175 -105.99677 19606 ft 308 kts 276°
2026-05-07 20:32 39.99323 -106.02384 19379 ft 306 kts 277°
2026-05-07 20:33 39.99477 -106.05165 19124 ft 307 kts 277°
2026-05-07 20:33 39.99629 -106.07943 18904 ft 308 kts 276°
2026-05-07 20:33 39.99778 -106.10754 18682 ft 312 kts 276°
2026-05-07 20:33 39.99931 -106.13573 18452 ft 311 kts 276°
2026-05-07 20:34 40.00081 -106.16383 18190 ft 309 kts 275°
2026-05-07 20:34 40.00230 -106.19176 17924 ft 308 kts 275°
2026-05-07 20:34 40.00377 -106.21937 17630 ft 303 kts 276°
2026-05-07 20:34 40.00519 -106.24641 17527 ft 294 kts 276°
2026-05-07 20:35 40.00658 -106.27260 17394 ft 286 kts 276°
2026-05-07 20:35 40.00792 -106.29814 17268 ft 278 kts 275°
2026-05-07 20:35 40.00923 -106.32297 17159 ft 270 kts 275°
2026-05-07 20:35 40.01049 -106.34708 17039 ft 263 kts 276°
2026-05-07 20:36 40.01169 -106.37051 16940 ft 254 kts 275°
2026-05-07 20:36 40.01285 -106.39322 16830 ft 247 kts 275°
2026-05-07 20:36 40.01354 -106.41510 16732 ft 244 kts 266°
2026-05-07 20:36 40.00794 -106.43589 16615 ft 247 kts 241°
2026-05-07 20:37 39.99667 -106.45334 16412 ft 261 kts 225°
2026-05-07 20:37 39.98208 -106.46791 16174 ft 264 kts 221°
2026-05-07 20:37 39.96718 -106.48194 15898 ft 264 kts 221°
2026-05-07 20:37 39.95241 -106.49608 15623 ft 264 kts 222°
2026-05-07 20:38 39.93769 -106.51037 15325 ft 263 kts 221°
2026-05-07 20:38 39.92310 -106.52468 15076 ft 262 kts 221°
2026-05-07 20:38 39.90850 -106.53897 14799 ft 263 kts 222°
2026-05-07 20:38 39.89390 -106.55331 14519 ft 263 kts 221°
2026-05-07 20:39 39.87932 -106.56768 14281 ft 263 kts 221°
2026-05-07 20:39 39.86469 -106.58213 14020 ft 264 kts 221°
2026-05-07 20:39 39.84994 -106.59658 13698 ft 266 kts 221°
2026-05-07 20:39 39.83519 -106.61092 13410 ft 266 kts 220°
2026-05-07 20:40 39.81784 -106.61984 13119 ft 275 kts 193°
2026-05-07 20:40 39.79888 -106.62278 12871 ft 273 kts 190°
2026-05-07 20:40 39.78005 -106.62568 12592 ft 271 kts 192°
2026-05-07 20:40 39.76158 -106.62860 12364 ft 264 kts 190°
2026-05-07 20:41 39.74352 -106.63148 12118 ft 258 kts 193°
2026-05-07 20:41 39.72584 -106.63428 11827 ft 253 kts 192°
2026-05-07 20:41 39.70860 -106.63724 11574 ft 245 kts 198°
2026-05-07 20:41 39.69394 -106.64669 11260 ft 232 kts 230°
2026-05-07 20:42 39.68350 -106.66200 11009 ft 222 kts 236°
2026-05-07 20:42 39.67410 -106.67760 10742 ft 218 kts 234°
2026-05-07 20:42 39.66651 -106.69449 10393 ft 217 kts 257°
2026-05-07 20:42 39.66436 -106.71338 10138 ft 213 kts 263°
2026-05-07 20:43 39.66244 -106.73244 9752 ft 215 kts 263°
2026-05-07 20:43 39.66046 -106.75168 9387 ft 213 kts 264°
2026-05-07 20:43 39.65844 -106.77067 8992 ft 210 kts 263°
2026-05-07 20:43 39.65644 -106.78935 8685 ft 208 kts 264°
2026-05-07 20:44 39.65445 -106.80763 8352 ft 201 kts 264°
2026-05-07 20:44 39.65274 -106.82442 8173 ft 174 kts 263°
2026-05-07 20:44 39.65111 -106.83959 7861 ft 157 kts 263°
2026-05-07 20:44 39.64960 -106.85336 7558 ft 147 kts 263°
2026-05-07 20:45 39.64814 -106.86663 7261 ft 144 kts 262°
2026-05-07 20:45 39.64678 -106.87947 6956 ft 142 kts 259°
2026-05-07 20:45 39.64594 -106.88785 6781 ft 141 kts 258°
2026-05-07 20:45 39.64402 -106.90460 6555 ft 138 kts 259°
2026-05-07 20:46 39.64279 -106.91576 6511 ft 106 kts 261°
2026-05-07 20:46 39.64201 -106.92221 6492 ft 37 kts 249°
2026-05-07 20:46 39.64117 -106.92260 6491 ft 9 kts 139°
2026-05-07 20:46 39.64101 -106.92210 6493 ft 9 kts 88°
2026-05-07 20:47 39.64107 -106.92129 6495 ft 9 kts 82°
2026-05-07 20:47 39.64116 -106.92050 6497 ft 9 kts 81°
2026-05-07 20:47 39.64126 -106.91974 6499 ft 8 kts 81°
2026-05-07 20:47 39.64136 -106.91900 6501 ft 8 kts 80°
2026-05-07 20:48 39.64144 -106.91827 6503 ft 8 kts 82°
2026-05-07 20:48 39.64149 -106.91757 6505 ft 8 kts 85°
2026-05-07 20:48 39.64155 -106.91689 6507 ft 7 kts 80°
2026-05-07 20:48 39.64162 -106.91620 6509 ft 8 kts 87°
2026-05-07 20:49 39.64130 -106.91555 6511 ft 9 kts 123°
2026-05-07 20:49 39.64120 -106.91470 6513 ft 10 kts 91°
2026-05-07 20:49 39.64120 -106.91449 6514 ft 0 kts 91°
2026-05-07 20:49 39.64118 -106.91445 6514 ft 1 kts 125°
2026-05-07 20:50 39.64111 -106.91442 6514 ft 2 kts 159°
2026-05-07 20:50 39.64089 -106.91434 6514 ft 3 kts 158°
2026-05-07 20:50 39.64073 -106.91415 6514 ft 3 kts 129°
2026-05-07 20:50 39.64069 -106.91408 6515 ft 0 kts 129°